Regional Weather Roundup
Issued by NWS

Home | Current Version | Previous Version | Graphics & Text | Print | Product List | Glossary Off
Versions: 1 2 3 4 5 6 7 8 9 10 11 12 13 14 15 16 17 18 19 20 21 22 23 24 25 26 27 28 29 30 31 32 33 34 35 36 37 38 39 40 41 42 43 44 45 46 47 48 49 50

000
ASUS43 KMKX 222221
RWRWI

WISCONSIN REGIONAL WEATHER ROUNDUP
NATIONAL WEATHER SERVICE MILWAUKEE/SULLIVAN WI
400 PM CST WED FEB 22 2017

NOTE: "FAIR" INDICATES FEW OR NO CLOUDS BELOW 12,000 FEET WITH NO
SIGNIFICANT WEATHER AND/OR OBSTRUCTIONS TO VISIBILITY.

WIZ001-002-006>008-014>016-023>028-222300-
NORTHWEST WISCONSIN

CITY           SKY/WX    TMP DP  RH WIND       PRES   REMARKS
SUPERIOR ARPT  CLOUDY    38  34  84 NE10      29.60F WCI  32
ASHLAND        CLOUDY    40  34  79 N12       29.60R WCI  33
HAYWARD        MOSUNNY   51  40  65 NE9       29.54R
SIREN          CLOUDY    52  43  71 SE3       29.56R
CUMBERLAND     CLOUDY    50  43  76 CALM      29.54R
RICE LAKE      PTSUNNY   52  44  72 CALM      29.55R
CHETEK         PTSUNNY   53  43  68 CALM      29.53S
LADYSMITH      CLOUDY    53  43  67 SE5       29.54R
EAU CLAIRE     PTSUNNY   57  41  55 CALM      29.52F
MENOMONIE      MOSUNNY   57  41  54 CALM      29.53S
NEW RICHMOND   MOSUNNY   56  44  64 SW3       29.54R
OSCEOLA        CLOUDY    51  45  80 NW7       29.57S
$$

WIZ003>005-009-010-017-018-222300-
NORTH CENTRAL WISCONSIN

CITY           SKY/WX    TMP DP  RH WIND       PRES   REMARKS
MANITOWISH WTR CLOUDY    42  42 100 NE8       29.54F
ARBOR VITAE    CLOUDY    45  43  93 CALM        N/A
WOODRUFF       CLOUDY    45  43  93 CALM        N/A
RHINELANDER    CLOUDY    47  44  90 E6        29.55F
EAGLE RIVER    LGT RAIN  44  43  96 SE6       29.55F
LAND O LAKES   CLOUDY    43  43 100 E3        29.57F FOG
PHILLIPS       CLOUDY    47  44  90 N7        29.52S
TOMAHAWK       CLOUDY    47  42  82 CALM      29.55F
MEDFORD        CLOUDY    50  40  67 E5        29.50F
MERRILL        NOT AVBL
$$

WIZ029-030-035-036-043>047-222300-
CENTRAL WISCONSIN

CITY           SKY/WX    TMP DP  RH WIND       PRES   REMARKS
WAUSAU         CLOUDY    54  38  54 NE5       29.53F
MOSINEE        MOSUNNY   52  39  62 N13       29.53F
MARSHFIELD     CLOUDY    53  40  61 NE12      29.49F
STEVENS POINT  CLOUDY    54  35  48 N6        29.54F
WAUPACA        CLOUDY    61  38  43 N7        29.52F
WAUTOMA        PTSUNNY   63  42  46 NW8       29.52S
WISC RAPIDS    MOSUNNY   59  37  44 N8        29.52F
CAMP DOUGLAS   PTSUNNY   61  39  44 CALM      29.51F
$$

WIZ011>013-019>022-031-037>040-048>050-222300-
NORTHEAST WISCONSIN

CITY           SKY/WX    TMP DP  RH WIND       PRES   REMARKS
ANTIGO         CLOUDY    49  38  67 CALM      29.58R
SHAWANO        CLOUDY    55  43  63 N3        29.55R
OCONTO         PTSUNNY   57  45  63 N6        29.55R
STURGEON BAY   MOSUNNY   48  43  82 E3        29.56R
GREEN BAY      CLOUDY    64  51  62 SW5       29.52F
MANITOWOC      MOSUNNY   50  43  77 E5        29.54S
APPLETON       PTSUNNY   63  41  45 W8        29.51F
CLINTONVILLE   CLOUDY    59  37  44 N5        29.52F
OSHKOSH        SUNNY     65  51  60 S9        29.51F
$$

WIZ032>034-041-042-053>061-222300-
SOUTHWEST WISCONSIN

CITY           SKY/WX    TMP DP  RH WIND       PRES   REMARKS
LA CROSSE      SUNNY     62  40  44 S10       29.53S
SPARTA         CLOUDY    61  40  46 SW6       29.55R
VIROQUA        SUNNY     61  40  45 W13G18    29.55R
BOSCOBEL       SUNNY     72  44  36 SW13G20   29.51F
PRAIRIE DU CHI SUNNY     69  39  33 SW10      29.52S
PLATTEVILLE    SUNNY     70  49  48 S15       29.53F
$$

WIZ056-057-062-063-064-067-068-222300-
SOUTH CENTRAL WISCONSIN

CITY           SKY/WX    TMP DP  RH WIND       PRES   REMARKS
REEDSBURG      PTSUNNY   67  46  47 SW10      29.51S
BARABOO/DELLS  PTSUNNY   64  43  46 SW9       29.51F
LONE ROCK      SUNNY     71  46  40 SW9       29.51F
MINERAL POINT  SUNNY     70  45  40 S17       29.52F
MADISON        MOSUNNY   68  48  48 S12       29.51F
MIDDLETON      SUNNY     70  49  46 S14       29.51F
WATERTOWN      MOSUNNY   68  49  49 S14       29.52F
MONROE         SUNNY     68  52  56 S21G28    29.54F
JANESVILLE     MOSUNNY   72  48  43 S18G24    29.55F
$$

WIZ051-052-058>065-066-070>072-222300-
SOUTHEAST WISCONSIN

CITY           SKY/WX    TMP DP  RH WIND       PRES   REMARKS
MILWAUKEE      MOSUNNY   70  47  43 S23       29.57F
WAUKESHA       SUNNY     66  48  52 S13G21    29.56F
MILWAUKEE/TIMM SUNNY     70  43  37 S17G25    29.56F
RACINE         SUNNY     63  46  54 S10       29.60F
KENOSHA        SUNNY     67  51  56 S17       29.60F
FOND DU LAC    SUNNY     65  47  52 SW10      29.52F
SHEBOYGAN      SUNNY     67  45  45 SW21      29.51F
WEST BEND      SUNNY     66  45  45 SW14      29.53F
JUNEAU         MOSUNNY   63  50  61 S10       29.54F
$$

LSZ147-162-222300-
LAKE SUPERIOR

STATION/POSITION TIME  TEMP    WIND        PRES    WAVE
                       AIR SEA DIR/SP/G            HT/PER
                 (UTC) (F)     (DEG/KT/KT) (MB)    (FT/S)
DEVILS ISLAND    2200   35      90/  9/ 10 1003.8R
PORT WING        2130   35      30/  9/ 11 1002.7S
SAXON HARBOR     2130   34      30/  9/ 11 1002.4F
$$

LMZ867-665-643>646-222300-
LAKE MICHIGAN

STATION/POSITION TIME  TEMP    WIND        PRES    WAVE
                       AIR SEA DIR/SP/G            HT/PER
                 (UTC) (F)     (DEG/KT/KT) (MB)    (FT/S)
CHAMBERS ISLAND  2140   40     310/  5/  6 1001.4R
NORTHPORT PIER   2140   43     170/  5/ 11 1001.4R
SISTER BAY       2105   47     140/ 10/ 13   N/A
KEWAUNEE LAKESHO 2154   39     180/  8/  9 1000.1F
SHEBOYGAN LAKESH 2200   44     180/ 24/ 25  999.7F
PORT WASHINGTON  2140   45     180/  9/ 13 1001.7F
MILWAUKEE LAKESH 2200          140/ 13/ 15   N/A
KENOSHA   LAKESH 2200   44     170/ 16/ 18 1002.4
$$

TC  - TEMPERATURE IN CELSIUS
VSB - VISIBILITY IN STATUTE MILES
WCI - WIND CHILL INDEX
HX  - HEAT INDEX





USA.gov is the U.S. government's official web portal to all federal, state and local government web resources and services.